7 * 24
多渠道服务支持
TIANQI 25(天启25)是中国于北京时间2024年5月29日8时整发射的商业低轨卫星,隶属于天启星座物联网系统,旨在补充我国低轨物联网卫星布局,为全球范围内的各类物联网终端设备提供稳定的卫星通信服务,可支撑智慧海事、环境监测、应急通信等多领域应用,推动天地一体物联网网络建设。
中国
(CN)
| 数据来源 | 国际轨道数据 |
| 星历时间: | 2026-05-24T10:32:22+0800 21小时前 查看轨道信息 |
| 半长轴: | 7274.839km |
| 偏心率: | 0.0010741 |
| 轨道倾角: | 44.979° |
| 近地点辐角 | 124.451° |
| 升交点赤经 | 9.104° |
| 平近点角 | 235.734° |
| 近地点: | 888.888km |
| 远地点: | 904.516km |
| 周期: | 102.919分钟 |
| 每日圈数: | 13.991611 |